Orbital Elements at Epoch 2459200.5 (2020-Dec-17.0) TDB
Reference: JPL 17 (heliocentric ecliptic J2000)
Element | Value | Uncertainty (1-sigma) | Units |
e | .1175555028866893 | 5.1479e-08 | |
a | 2.60622627404474 | 1.3868e-08 | au |
q | 2.299850033762908 | 1.3876e-07 | au |
i | .6181948897320726 | 4.0191e-06 | deg |
node | 304.2060230443886 | 0.00049717 | deg |
peri | 137.9956782543533 | 0.00049763 | deg |
M | 331.8325555964853 | 1.9869e-05 | deg |
tp | 2459320.743483641090 (2021-Apr-16.24348364) | 8.4773e-05 | TDB |
period | 1536.797356929935 4.21 | 1.2266e-05 3.358e-08 | d yr |
n | .2342533961140935 | 1.8697e-09 | deg/d |
Q | 2.912602514326572 | 1.5498e-08 | au |
|
| | Orbit Determination Parameters
Additional Information
|